EN

Hourly Weather Ventimiglia

Today, 28 November, Saturday

Time Temperature Precipitation Wind Pressure Humidity
00:00 +11°C° 0.1 mm 7 mps 756 mmHg 72%
01:00 +11°C° 0 mm 7 mps 755 mmHg 69%
02:00 +11°C° 0.2 mm 7 mps 755 mmHg 69%
03:00 +11°C° 0.2 mm 7 mps 755 mmHg 69%
04:00 +11°C° 0.2 mm 7 mps 754 mmHg 69%
05:00 +11°C° 0.2 mm 7 mps 754 mmHg 70%
06:00 +11°C° 0.2 mm 7 mps 754 mmHg 72%
07:00 +11°C° 0 mm 8 mps 754 mmHg 77%
08:00 +11°C° 1.7 mm 8 mps 754 mmHg 79%
09:00 +11°C° 1.7 mm 8 mps 754 mmHg 81%
10:00 +11°C° 1.7 mm 8 mps 754 mmHg 84%
11:00 +11°C° 0.9 mm 8 mps 753 mmHg 83%
12:00 +11°C° 0.9 mm 8 mps 753 mmHg 82%
13:00 +11°C° 0.9 mm 8 mps 753 mmHg 81%
14:00 +11°C° 0.2 mm 8 mps 752 mmHg 80%
15:00 +11°C° 0.2 mm 8 mps 752 mmHg 79%
16:00 +11°C° 0.2 mm 8 mps 752 mmHg 78%
17:00 +11°C° 0 mm 8 mps 752 mmHg 78%
18:00 +10°C° 0 mm 8 mps 752 mmHg 77%
19:00 +10°C° 0 mm 7 mps 752 mmHg 76%
20:00 +10°C° 0 mm 7 mps 752 mmHg 76%
21:00 +10°C° 0 mm 7 mps 752 mmHg 75%
22:00 +10°C° 0 mm 7 mps 752 mmHg 74%
23:00 +10°C° 0 mm 7 mps 752 mmHg 75%

Tomorrow, 29 November, Sunday

Time Temperature Precipitation Wind Pressure Humidity
00:00 +10°C° 0 mm 6 mps 752 mmHg 75%
01:00 +10°C° 0 mm 6 mps 752 mmHg 75%
02:00 +10°C° 0 mm 6 mps 752 mmHg 75%
03:00 +10°C° 0 mm 6 mps 752 mmHg 76%
04:00 +10°C° 0 mm 5 mps 752 mmHg 76%
05:00 +10°C° 0 mm 5 mps 752 mmHg 76%
06:00 +9°C° 0 mm 5 mps 752 mmHg 76%
07:00 +10°C° 0 mm 4 mps 752 mmHg 76%
08:00 +11°C° 0 mm 4 mps 753 mmHg 73%
09:00 +12°C° 0 mm 3 mps 753 mmHg 71%
10:00 +14°C° 0 mm 2 mps 753 mmHg 68%
11:00 +15°C° 0 mm 2 mps 753 mmHg 66%
12:00 +16°C° 0 mm 2 mps 753 mmHg 63%
13:00 +18°C° 0 mm 1 mps 753 mmHg 60%
14:00 +16°C° 0 mm 1 mps 753 mmHg 65%
15:00 +15°C° 0 mm 1 mps 753 mmHg 69%
16:00 +14°C° 0 mm 1 mps 753 mmHg 74%
17:00 +14°C° 0 mm 1 mps 753 mmHg 74%
18:00 +13°C° 0 mm 2 mps 754 mmHg 73%
19:00 +12°C° 0 mm 2 mps 754 mmHg 73%
20:00 +12°C° 0 mm 2 mps 754 mmHg 72%
21:00 +12°C° 0 mm 2 mps 755 mmHg 71%
22:00 +10°C° 0 mm 2 mps 755 mmHg 71%
23:00 +10°C° 0 mm 2 mps 755 mmHg 70%

Day after tomorrow, 30 November, Monday

Time Temperature Precipitation Wind Pressure Humidity
00:00 +10°C° 0 mm 2 mps 755 mmHg 70%
01:00 +10°C° 0 mm 2 mps 756 mmHg 69%
02:00 +10°C° 0 mm 2 mps 756 mmHg 69%
03:00 +10°C° 0 mm 2 mps 756 mmHg 69%
04:00 +10°C° 0 mm 2 mps 756 mmHg 69%
05:00 +10°C° 0 mm 2 mps 756 mmHg 69%
06:00 +9°C° 0 mm 2 mps 757 mmHg 69%
07:00 +9°C° 0 mm 2 mps 757 mmHg 70%
08:00 +12°C° 0 mm 2 mps 757 mmHg 68%
09:00 +13°C° 0 mm 1 mps 758 mmHg 67%
10:00 +14°C° 0 mm 1 mps 758 mmHg 65%
11:00 +14°C° 0 mm 1 mps 758 mmHg 66%
12:00 +15°C° 0 mm 2 mps 758 mmHg 68%
13:00 +16°C° 0 mm 2 mps 758 mmHg 69%
14:00 +15°C° 0 mm 2 mps 758 mmHg 75%
15:00 +14°C° 0 mm 2 mps 758 mmHg 82%
16:00 +14°C° 0 mm 2 mps 758 mmHg 88%
17:00 +13°C° 0 mm 2 mps 758 mmHg 90%
18:00 +13°C° 0 mm 2 mps 758 mmHg 92%
19:00 +12°C° 0 mm 2 mps 758 mmHg 93%
20:00 +12°C° 0 mm 2 mps 758 mmHg 92%
21:00 +12°C° 0 mm 2 mps 758 mmHg 91%
22:00 +11°C° 0 mm 3 mps 759 mmHg 90%
23:00 +11°C° 0.1 mm 3 mps 758 mmHg 90%

1 December, Tuesday

Time Temperature Precipitation Wind Pressure Humidity
00:00 +11°C° 0.1 mm 3 mps 758 mmHg 90%
01:00 +11°C° 0.1 mm 3 mps 758 mmHg 90%
02:00 +10°C° 0.1 mm 3 mps 758 mmHg 91%
03:00 +10°C° 0.1 mm 3 mps 757 mmHg 92%
04:00 +10°C° 0.1 mm 3 mps 757 mmHg 92%
05:00 +10°C° 0.1 mm 3 mps 757 mmHg 92%
06:00 +10°C° 0.1 mm 3 mps 756 mmHg 92%
07:00 +10°C° 0.1 mm 3 mps 756 mmHg 92%
08:00 +10°C° 0 mm 3 mps 756 mmHg 89%
09:00 +10°C° 0 mm 3 mps 756 mmHg 87%
10:00 +11°C° 0 mm 3 mps 755 mmHg 84%
11:00 +11°C° 0 mm 3 mps 755 mmHg 84%
12:00 +11°C° 0 mm 3 mps 754 mmHg 84%
13:00 +11°C° 0 mm 3 mps 754 mmHg 84%
14:00 +11°C° 0 mm 3 mps 753 mmHg 85%
15:00 +10°C° 0 mm 3 mps 753 mmHg 86%
16:00 +10°C° 0 mm 3 mps 752 mmHg 87%
17:00 +10°C° 0 mm 3 mps 752 mmHg 87%
18:00 +9°C° 0 mm 3 mps 752 mmHg 87%
19:00 +9°C° 0 mm 3 mps 752 mmHg 87%
20:00 +8°C° 0 mm 4 mps 752 mmHg 84%
21:00 +7°C° 0 mm 4 mps 752 mmHg 82%
22:00 +7°C° 0 mm 4 mps 752 mmHg 79%
23:00 +7°C° 0.1 mm 5 mps 752 mmHg 77%

2 December, Wednesday

Time Temperature Precipitation Wind Pressure Humidity
00:00 +7°C° 0.1 mm 5 mps 752 mmHg 75%
01:00 +5°C° 0.1 mm 6 mps 752 mmHg 72%
02:00 +6°C° 0.1 mm 5 mps 752 mmHg 71%
03:00 +6°C° 0.1 mm 5 mps 752 mmHg 70%
04:00 +6°C° 0.1 mm 5 mps 752 mmHg 69%
05:00 +6°C° 0.1 mm 5 mps 752 mmHg 69%
06:00 +5°C° 0.1 mm 6 mps 752 mmHg 69%
07:00 +5°C° 0.1 mm 7 mps 751 mmHg 68%
08:00 +7°C° 0 mm 6 mps 751 mmHg 63%
09:00 +7°C° 0 mm 5 mps 751 mmHg 59%
10:00 +8°C° 0 mm 5 mps 751 mmHg 54%
11:00 +9°C° 0 mm 5 mps 751 mmHg 50%
12:00 +10°C° 0 mm 5 mps 751 mmHg 46%
13:00 +12°C° 0 mm 5 mps 751 mmHg 43%
14:00 +10°C° 0 mm 5 mps 751 mmHg 46%
15:00 +10°C° 0 mm 6 mps 751 mmHg 48%
16:00 +9°C° 0 mm 7 mps 751 mmHg 51%
17:00 +8°C° 0 mm 7 mps 751 mmHg 54%
18:00 +6°C° 0 mm 8 mps 752 mmHg 56%
19:00 +5°C° 0 mm 8 mps 752 mmHg 59%
20:00 +5°C° 0 mm 7 mps 752 mmHg 61%
21:00 +5°C° 0 mm 7 mps 753 mmHg 64%
22:00 +5°C° 0 mm 6 mps 753 mmHg 66%
23:00 +6°C° 0 mm 5 mps 753 mmHg 66%

3 December, Thursday

Time Temperature Precipitation Wind Pressure Humidity
00:00 +5°C° 0 mm 5 mps 753 mmHg 65%
01:00 +5°C° 0 mm 4 mps 753 mmHg 65%
02:00 +5°C° 0 mm 4 mps 753 mmHg 62%
03:00 +6°C° 0 mm 4 mps 753 mmHg 60%
04:00 +6°C° 0 mm 4 mps 752 mmHg 57%
05:00 +6°C° 0 mm 4 mps 752 mmHg 59%
06:00 +8°C° 0 mm 3 mps 752 mmHg 60%
07:00 +8°C° 0 mm 3 mps 752 mmHg 61%
08:00 +9°C° 0 mm 3 mps 751 mmHg 61%
09:00 +10°C° 0 mm 3 mps 751 mmHg 61%
10:00 +11°C° 0 mm 3 mps 751 mmHg 61%
11:00 +11°C° 0 mm 3 mps 751 mmHg 61%
12:00 +12°C° 0 mm 3 mps 750 mmHg 60%
13:00 +12°C° 0 mm 4 mps 750 mmHg 60%
14:00 +12°C° 0 mm 3 mps 749 mmHg 62%
15:00 +12°C° 0 mm 3 mps 749 mmHg 63%
16:00 +13°C° 0 mm 2 mps 749 mmHg 65%
17:00 +12°C° 0 mm 2 mps 749 mmHg 67%
18:00 +10°C° 0 mm 2 mps 749 mmHg 69%
19:00 +10°C° 0 mm 2 mps 749 mmHg 71%
20:00 +10°C° 0 mm 2 mps 748 mmHg 71%
21:00 +10°C° 0 mm 2 mps 748 mmHg 72%
22:00 +9°C° 0 mm 3 mps 748 mmHg 72%
23:00 +9°C° 0 mm 2 mps 748 mmHg 72%
Show more

We Need Your Consent

Meteoprog and our Service Providers may store and access personal data such as cookies, device identifiers or other similar technologies on your device and process such data to personalise content and ads, as well as provide social media features and to analyse the traffic.

  • Store and/or access information on your device

    Cookies, device identifiers or other information can be stored or accessed on your device for the purposes indicated above.

  • Personalised ads and content, ad and content measurement, audience insights, and products development

    Ads and content can be personalised based on a profile. More data can be added to better personalise ads and content. Ad and content performance can be measured. Insights about the audience who saw the ads and content can be derived. Such data can be used to develop or improve user’s experience, systems and software.

By clicking ‘I Agree’ you will allow the use of indicated cookies, device identifiers, web beacons or other similar technologies. Your settings can be changed in the browser on your device.

For certain purposes, legitimate interests may be relied on, rather than consent. You can read more about this in our Privacy and Cookie Policy.